COSMOS 1430

Satellite information

Favourite Embed

Satellite Type and Status

PAYLOADIN ORBIT

Key statistics

Satellite COSMOS 1430 at a glance.

Uptime

15625

Days in orbit

Revolutions

≈ 12.5

Per day

Orbit

LEO

Low Earth Orbit

Inclination

74.0

Latest

Satellite identification and parameters

Extended collection of information and parameters for COSMOS 1430.

Object identification

Identified? True

Debris? False

Object name: COSMOS 1430

International designator: 1983-002B

Object number (NORAD): 13762

Object ID (CCSDS): 13762

Country: COMMONWEALTH OF INDEPENDENT STATES (CIS)

Current information (Y/N): Y

RCS size: MEDIUM

Orbital parameters

Period: 115.596 minutes

Inclination: 74.0224 deg

SMA: 7860.578 km

Apoapsis: 1498.253 km

Periapsis: 1466.632 km

RAAN: 82.9987 deg

Eccentricy: 0.00201136

Argument of periapsis: 23.6041 deg

Mean anomaly: 43.7909 deg

Mean motion: 12.45721761 rev/day

Mean motion (dot): 0.0 rev/day2

B* drag term: 0.00010596624 1/REarth

Two-line elements (TLE)

Creation date: Oct. 28, 2025, 7:11 p.m.

Reference frame: TEME

Reference center: EARTH

Epoch: Oct. 28, 2025, 12:09 p.m. UTC

TLE line 0: 0 COSMOS 1430

TLE line 1: 1 13762U 83002B 25301.50683697 .00000000 00000-0 10597-3 0 9992

TLE line 2: 2 13762 74.0224 82.9987 0020114 23.6041 43.7909 12.45721761945407

Live tracking on map

Real-time ground track for satellite COSMOS 1430.

In-orbit conjunctions

There are no conjunctions computed for COSMOS 1430, at the moment. Check back to stay up to date, as we update our databases every day.

Go to all conjunctions

Associated space launch

Military communications satellites

COSMOS 1430 was lifted into orbit during the mission ‘Kosmos-3M | Strela-1M 257-264’, on board a Kosmos-3M space rocket.

The launch took place on Jan. 19, 1983, 2:25 a.m. from 132/1 (132L).

For more information about the launch, click the button.

Launch to space Kosmos-3M | Strela-1M 257-264
Kosmos-3M | Strela-1M 257-264

Agency: N/A

Status: Launch Successful

Launch date: Jan. 19, 1983, 2:25 a.m. UTC

Rocket: Kosmos-3M

Launch pad: 132/1 (132L)

Location: Plesetsk Cosmodrome, Russian Federation

...

Latest news about this satellite

There are no fresh news available about this satellite. Check back as we update our databases every day.


Newsletter sign-up

Weekly statistics, charts and insights to help you stay on top of the space industry.